Regional Weather Roundup
Issued by NWS

Home | Current Version | Previous Version | Text Only | Print | Product List | Glossary On
Versions: 1 2 3 4 5 6 7 8 9 10 11 12 13 14 15 16 17 18 19 20 21 22 23 24 25 26 27 28
000
ASUS45 KBOI 191710
RWRID

IDAHO REGIONAL WEATHER ROUNDUP
NATIONAL WEATHER SERVICE BOISE ID
1100 AM MDT SAT AUG 19 2017

NOTE: "FAIR" INDICATES FEW OR NO CLOUDS BELOW 12000 FEET
WITH NO SIGNIFICANT WEATHER AND/OR OBSTRUCTIONS TO VISIBILITY

IDZ012-014-191800-
SOUTHWEST IDAHO


CITY           SKY/WX    TMP DP  RH WIND       PRES   REMARKS
BOISE          SUNNY     72  43  35 NW8       30.05S
CALDWELL       SUNNY     73  47  39 W12       30.04S
MOUNTAIN HOME  SUNNY     77  43  29 NW12      30.04S
$$

IDZ016-017-191800-
SOUTHCENTRAL IDAHO


CITY           SKY/WX    TMP DP  RH WIND       PRES   REMARKS
BURLEY         SUNNY     71  41  33 W6        30.09S
JEROME         SUNNY     72  36  26 SW12      30.10S
TWIN FALLS     SUNNY     77  35  21 W8        30.10S
$$

IDZ019>023-191800-
SOUTHEAST IDAHO


CITY           SKY/WX    TMP DP  RH WIND       PRES   REMARKS
IDAHO FALLS    MOSUNNY   72  34  24 S12       30.12R
POCATELLO      SUNNY     78  30  17 W14       30.12R
REXBURG        SUNNY     71  33  24 SW13      30.11F
$$

IDZ006-010-011-018-031-032-191800-
CENTRAL IDAHO MOUNTAINS


CITY           SKY/WX    TMP DP  RH WIND       PRES   REMARKS
MCCALL         SUNNY     67  30  25 CALM      30.12S
HAILEY         MOSUNNY   72  34  25 CALM      30.14F
STANLEY          N/A     51  34  52 CALM      30.22F
SALMON         MOSUNNY   64  39  39 CALM      30.08F
CHALLIS        PTSUNNY   62  37  39 CALM      30.13S
$$

IDZ002-004-006-007-026-191800-
NORTHERN IDAHO


CITY           SKY/WX    TMP DP  RH WIND       PRES   REMARKS
LEWISTON       MOSUNNY   77  47  34 NW14G21   30.07S
LOWELL           N/A     71  46  40 CALM      30.06F
COEUR D`ALENE  SUNNY     68  47  46 S7        30.07S
MULLAN PASS    MOSUNNY   54  38  54 VRB3      30.16R
$$




USA.gov is the U.S. government's official web portal to all federal, state and local government web resources and services.